| time (UTC) | temp F | wind direction | speed knots | gust knots | rain 1hr in | rain 24hr in | rain mn in | humidity % | barometer mb |
| 20260505010003 | 76 | 176 | 1.7 | 5.2 | 0.00 | 0.00 | 0.00 | 52 | 1010.8 |
| 20260505005503 | 76 | 178 | 0.9 | 5.2 | 0.00 | 0.00 | 0.00 | 52 | 1010.8 |
| 20260505005024 | 76 | 182 | 1.7 | 7.0 | 0.00 | 0.00 | 0.00 | 51 | 1010.8 |
| 20260505004503 | 76 | 181 | 1.7 | 7.0 | 0.00 | 0.00 | 0.00 | 50 | 1010.8 |
| 20260505004003 | 77 | 188 | 2.6 | 8.7 | 0.00 | 0.00 | 0.00 | 50 | 1010.6 |
| 20260505003503 | 77 | 192 | 2.6 | 8.7 | 0.00 | 0.00 | 0.00 | 49 | 1010.6 |
| 20260505003003 | 77 | 191 | 2.6 | 8.7 | 0.00 | 0.00 | 0.00 | 48 | 1010.5 |
| 20260505002503 | 78 | 190 | 1.7 | 8.7 | 0.00 | 0.00 | 0.00 | 47 | 1010.5 |
| 20260505002024 | 78 | 196 | 1.7 | 6.1 | 0.00 | 0.00 | 0.00 | 47 | 1010.5 |
| 20260505001503 | 78 | 205 | 1.7 | 6.1 | 0.00 | 0.00 | 0.00 | 46 | 1010.6 |
| 20260505001003 | 79 | 199 | 2.6 | 9.6 | 0.00 | 0.00 | 0.00 | 45 | 1010.7 |
| 20260505000503 | 79 | 198 | 3.5 | 11.3 | 0.00 | 0.00 | 0.00 | 45 | 1010.6 |
| 20260505000003 | 79 | 192 | 3.5 | 11.3 | 0.00 | 0.00 | 0.00 | 44 | 1010.7 |
| 20260504235503 | 80 | 191 | 4.3 | 12.2 | 0.00 | 0.00 | 0.00 | 44 | 1010.6 |
| 20260504235024 | 80 | 191 | 4.3 | 12.2 | 0.00 | 0.00 | 0.00 | 44 | 1010.7 |
| 20260504234503 | 80 | 185 | 2.6 | 9.6 | 0.00 | 0.00 | 0.00 | 43 | 1010.8 |
| 20260504234003 | 80 | 188 | 3.5 | 11.3 | 0.00 | 0.00 | 0.00 | 43 | 1010.8 |
| 20260504233524 | 81 | 195 | 4.3 | 11.3 | 0.00 | 0.00 | 0.00 | 42 | 1010.9 |
| 20260504233003 | 81 | 204 | 5.2 | 13.0 | 0.00 | 0.00 | 0.00 | 42 | 1011.1 |
| 20260504232503 | 81 | 207 | 5.2 | 13.0 | 0.00 | 0.00 | 0.00 | 41 | 1011.3 |
| 20260504232003 | 81 | 210 | 4.3 | 13.0 | 0.00 | 0.00 | 0.00 | 40 | 1011.3 |
| 20260504231503 | 81 | 208 | 4.3 | 10.4 | 0.00 | 0.00 | 0.00 | 39 | 1011.3 |
| 20260504231003 | 82 | 213 | 4.3 | 9.6 | 0.00 | 0.00 | 0.00 | 39 | 1011.3 |
| 20260504230503 | 82 | 219 | 4.3 | 12.2 | 0.00 | 0.00 | 0.00 | 38 | 1011.3 |
| 20260504230003 | 82 | 204 | 5.2 | 12.2 | 0.00 | 0.00 | 0.00 | 38 | 1011.3 |
| 20260504225524 | 82 | 200 | 5.2 | 13.0 | 0.00 | 0.00 | 0.00 | 37 | 1011.3 |
| 20260504225003 | 82 | 208 | 4.3 | 13.0 | 0.00 | 0.00 | 0.00 | 37 | 1011.4 |
| 20260504224503 | 82 | 203 | 5.2 | 13.0 | 0.00 | 0.00 | 0.00 | 37 | 1011.3 |
| 20260504224003 | 82 | 191 | 6.1 | 13.0 | 0.00 | 0.00 | 0.00 | 36 | 1011.4 |
| 20260504223503 | 82 | 175 | 4.3 | 11.3 | 0.00 | 0.00 | 0.00 | 36 | 1011.5 |
| 20260504223003 | 82 | 196 | 5.2 | 13.0 | 0.00 | 0.00 | 0.00 | 37 | 1011.6 |
| 20260504222503 | 83 | 210 | 6.1 | 13.0 | 0.00 | 0.00 | 0.00 | 36 | 1011.8 |
| 20260504222003 | 83 | 215 | 6.1 | 12.2 | 0.00 | 0.00 | 0.00 | 36 | 1011.8 |
| 20260504221503 | 83 | 219 | 5.2 | 12.2 | 0.00 | 0.00 | 0.00 | 35 | 1011.8 |
| 20260504221003 | 83 | 221 | 5.2 | 13.0 | 0.00 | 0.00 | 0.00 | 35 | 1011.8 |
| 20260504220503 | 83 | 213 | 5.2 | 13.0 | 0.00 | 0.00 | 0.00 | 36 | 1011.8 |
| 20260504220003 | 83 | 198 | 4.3 | 13.0 | 0.00 | 0.00 | 0.00 | 37 | 1011.9 |
| 20260504215503 | 83 | 200 | 5.2 | 13.0 | 0.00 | 0.00 | 0.00 | 36 | 1011.9 |
| 20260504215003 | 83 | 199 | 3.5 | 9.6 | 0.00 | 0.00 | 0.00 | 37 | 1012.2 |
| 20260504214503 | 83 | 199 | 3.5 | 9.6 | 0.00 | 0.00 | 0.00 | 38 | 1012.2 |
| 20260504214003 | 83 | 204 | 4.3 | 9.6 | 0.00 | 0.00 | 0.00 | 37 | 1012.2 |
| 20260504213503 | 83 | 209 | 5.2 | 13.0 | 0.00 | 0.00 | 0.00 | 36 | 1012.3 |
| 20260504213003 | 83 | 202 | 6.1 | 15.6 | 0.00 | 0.00 | 0.00 | 35 | 1012.3 |
| 20260504212503 | 83 | 188 | 6.1 | 15.6 | 0.00 | 0.00 | 0.00 | 36 | 1012.4 |
| 20260504212003 | 83 | 195 | 5.2 | 13.9 | 0.00 | 0.00 | 0.00 | 36 | 1012.4 |
| 20260504211503 | 83 | 201 | 5.2 | 17.4 | 0.00 | 0.00 | 0.00 | 36 | 1012.4 |
| 20260504211003 | 83 | 197 | 6.1 | 18.2 | 0.00 | 0.00 | 0.00 | 37 | 1012.5 |
| 20260504210503 | 83 | 208 | 5.2 | 18.2 | 0.00 | 0.00 | 0.00 | 37 | 1012.7 |
| 20260504210024 | 83 | 220 | 4.3 | 11.3 | 0.00 | 0.00 | 0.00 | 37 | 1012.8 |
| 20260504205524 | 83 | 210 | 5.2 | 11.3 | 0.00 | 0.00 | 0.00 | 37 | 1012.9 |
| 20260504205003 | 83 | 198 | 5.2 | 15.6 | 0.00 | 0.00 | 0.00 | 36 | 1012.9 |
| 20260504204503 | 83 | 203 | 5.2 | 15.6 | 0.00 | 0.00 | 0.00 | 36 | 1013.1 |
| 20260504204003 | 83 | 209 | 6.1 | 13.0 | 0.00 | 0.00 | 0.00 | 36 | 1013.1 |
| 20260504203503 | 83 | 204 | 6.1 | 14.8 | 0.00 | 0.00 | 0.00 | 36 | 1013.2 |
| 20260504203003 | 83 | 194 | 5.2 | 14.8 | 0.00 | 0.00 | 0.00 | 37 | 1013.4 |
| 20260504202503 | 83 | 204 | 6.1 | 13.9 | 0.00 | 0.00 | 0.00 | 34 | 1013.4 |
| 20260504202003 | 84 | 213 | 6.1 | 13.9 | 0.00 | 0.00 | 0.00 | 36 | 1013.4 |
| 20260504201503 | 84 | 204 | 6.1 | 13.9 | 0.00 | 0.00 | 0.00 | 36 | 1013.5 |
| 20260504201003 | 83 | 202 | 5.2 | 13.9 | 0.00 | 0.00 | 0.00 | 38 | 1013.4 |
| 20260504200503 | 83 | 197 | 3.5 | 11.3 | 0.00 | 0.00 | 0.00 | 39 | 1013.6 |
| 20260504200004 | 83 | 172 | 2.6 | 7.8 | 0.00 | 0.00 | 0.00 | 39 | 1013.8 |
| 20260504195503 | 83 | 175 | 3.5 | 8.7 | 0.00 | 0.00 | 0.00 | 39 | 1013.9 |
| 20260504195003 | 82 | 187 | 3.5 | 14.8 | 0.00 | 0.00 | 0.00 | 37 | 1013.9 |
| 20260504194503 | 82 | 211 | 5.2 | 14.8 | 0.00 | 0.00 | 0.00 | 39 | 1014.0 |
| 20260504194024 | 82 | 213 | 5.2 | 10.4 | 0.00 | 0.00 | 0.00 | 38 | 1014.1 |
| 20260504193503 | 82 | 200 | 5.2 | 11.3 | 0.00 | 0.00 | 0.00 | 37 | 1014.2 |
| 20260504193024 | 82 | 196 | 5.2 | 13.9 | 0.00 | 0.00 | 0.00 | 39 | 1014.3 |
| 20260504192503 | 82 | 205 | 6.1 | 17.4 | 0.00 | 0.00 | 0.00 | 37 | 1014.4 |
| 20260504192003 | 82 | 213 | 6.1 | 17.4 | 0.00 | 0.00 | 0.00 | 38 | 1014.4 |
| 20260504191503 | 82 | 214 | 6.1 | 15.6 | 0.00 | 0.00 | 0.00 | 39 | 1014.5 |
| 20260504191024 | 82 | 211 | 5.2 | 15.6 | 0.00 | 0.00 | 0.00 | 38 | 1014.6 |
| 20260504190524 | 82 | 204 | 5.2 | 12.2 | 0.00 | 0.00 | 0.00 | 38 | 1014.7 |
| 20260504190004 | 81 | 219 | 5.2 | 12.2 | 0.00 | 0.00 | 0.00 | 38 | 1014.6 |
| 20260504185524 | 81 | 221 | 6.1 | 13.0 | 0.00 | 0.00 | 0.00 | 39 | 1014.9 |
| 20260504185003 | 81 | 202 | 6.1 | 13.9 | 0.00 | 0.00 | 0.00 | 39 | 1015.0 |
| 20260504184503 | 81 | 204 | 6.1 | 13.9 | 0.00 | 0.00 | 0.00 | 40 | 1015.0 |
| 20260504184003 | 81 | 212 | 6.1 | 13.9 | 0.00 | 0.00 | 0.00 | 39 | 1015.0 |
| 20260504183503 | 81 | 201 | 6.1 | 14.8 | 0.00 | 0.00 | 0.00 | 39 | 1015.0 |
| 20260504183003 | 81 | 204 | 6.1 | 14.8 | 0.00 | 0.00 | 0.00 | 39 | 1015.0 |
| 20260504182503 | 80 | 211 | 7.8 | 19.1 | 0.00 | 0.00 | 0.00 | 39 | 1015.0 |
| 20260504182003 | 80 | 211 | 7.8 | 19.1 | 0.00 | 0.00 | 0.00 | 39 | 1015.0 |
| 20260504181503 | 80 | 208 | 5.2 | 14.8 | 0.00 | 0.00 | 0.00 | 41 | 1015.1 |
| 20260504181003 | 80 | 206 | 5.2 | 14.8 | 0.00 | 0.00 | 0.00 | 40 | 1015.3 |
| 20260504180503 | 80 | 193 | 4.3 | 11.3 | 0.00 | 0.00 | 0.00 | 39 | 1015.2 |
| 20260504180003 | 80 | 196 | 3.5 | 10.4 | 0.00 | 0.00 | 0.00 | 40 | 1015.3 |
| 20260504175503 | 80 | 230 | 5.2 | 12.2 | 0.00 | 0.00 | 0.00 | 40 | 1015.4 |
| 20260504175003 | 80 | 224 | 6.1 | 12.2 | 0.00 | 0.00 | 0.00 | 39 | 1015.5 |
| 20260504174503 | 80 | 219 | 5.2 | 12.2 | 0.00 | 0.00 | 0.00 | 41 | 1015.5 |
| 20260504174003 | 80 | 206 | 6.1 | 13.0 | 0.00 | 0.00 | 0.00 | 40 | 1015.6 |
| 20260504173503 | 80 | 206 | 5.2 | 13.9 | 0.00 | 0.00 | 0.00 | 41 | 1015.7 |
| 20260504173003 | 79 | 222 | 5.2 | 13.9 | 0.00 | 0.00 | 0.00 | 41 | 1015.9 |
| 20260504172503 | 79 | 217 | 7.8 | 18.2 | 0.00 | 0.00 | 0.00 | 41 | 1015.6 |
| 20260504172003 | 79 | 208 | 7.8 | 18.2 | 0.00 | 0.00 | 0.00 | 39 | 1016.0 |
| 20260504171524 | 79 | 205 | 6.1 | 14.8 | 0.00 | 0.00 | 0.00 | 41 | 1016.0 |
| 20260504171024 | 79 | 223 | 6.1 | 14.8 | 0.00 | 0.00 | 0.00 | 40 | 1016.0 |
| 20260504170524 | 80 | 221 | 5.2 | 16.5 | 0.00 | 0.00 | 0.00 | 38 | 1016.0 |
| 20260504151003 | 72 | 217 | 5.2 | 13.0 | 0.00 | 0.00 | 0.00 | 54 | 1016.5 |
| 20260504150524 | 72 | 222 | 5.2 | 13.0 | 0.00 | 0.00 | 0.00 | 56 | 1016.5 |
| 20260504141003 | 64 | 229 | 1.7 | 7.8 | 0.00 | 0.00 | 0.00 | 73 | 1017.0 |
| 20260504140503 | 64 | 224 | 1.7 | 7.8 | 0.00 | 0.00 | 0.00 | 74 | 1017.0 |
| 20260504130524 | 58 | 195 | 0.9 | 4.3 | 0.00 | 0.00 | 0.00 | 81 | 1016.9 |
| 20260504110503 | 58 | 234 | 0.9 | 2.6 | 0.00 | 0.00 | 0.00 | 75 | 1016.5 |
| 20260504100524 | 59 | 222 | 1.7 | 6.1 | 0.00 | 0.00 | 0.00 | 75 | 1016.4 |
| 20260504082003 | 58 | 215 | 1.7 | 6.1 | 0.00 | 0.00 | 0.00 | 79 | 1016.4 |
| 20260504081503 | 58 | 227 | 1.7 | 5.2 | 0.00 | 0.00 | 0.00 | 79 | 1016.5 |
| 20260504081003 | 58 | 222 | 1.7 | 5.2 | 0.00 | 0.00 | 0.00 | 79 | 1016.5 |
| 20260504080503 | 58 | 216 | 1.7 | 5.2 | 0.00 | 0.00 | 0.00 | 80 | 1016.5 |
| 20260504050503 | 59 | 0 | 0.0 | 0.0 | 0.00 | 0.00 | 0.00 | 77 | 1017.6 |
| 20260504050004 | 59 | 0 | 0.0 | 0.0 | 0.00 | 0.00 | 0.00 | 77 | 1017.6 |
| 20260504045503 | 59 | 0 | 0.0 | 0.0 | 0.00 | 0.00 | 0.00 | 77 | 1017.6 |
| 20260504045003 | 60 | 221 | 0.0 | 0.9 | 0.00 | 0.00 | 0.00 | 77 | 1017.6 |
| 20260504044503 | 60 | 221 | 0.0 | 0.9 | 0.00 | 0.00 | 0.00 | 76 | 1017.6 |
| 20260504044003 | 60 | 221 | 0.0 | 0.9 | 0.00 | 0.00 | 0.00 | 76 | 1017.6 |
| 20260504043503 | 60 | 0 | 0.0 | 0.0 | 0.00 | 0.00 | 0.00 | 75 | 1017.6 |
| 20260504043024 | 60 | 0 | 0.0 | 0.0 | 0.00 | 0.00 | 0.00 | 75 | 1017.6 |
| 20260504042503 | 60 | 221 | 0.0 | 1.7 | 0.00 | 0.00 | 0.00 | 75 | 1017.6 |
| 20260504042003 | 60 | 221 | 0.0 | 1.7 | 0.00 | 0.00 | 0.00 | 74 | 1017.6 |
| 20260504041503 | 60 | 221 | 0.0 | 1.7 | 0.00 | 0.00 | 0.00 | 74 | 1017.6 |
| 20260504041003 | 61 | 221 | 0.0 | 0.9 | 0.00 | 0.00 | 0.00 | 74 | 1017.6 |
| 20260504040503 | 61 | 221 | 0.0 | 0.9 | 0.00 | 0.00 | 0.00 | 74 | 1017.6 |
| 20260504040003 | 61 | 0 | 0.0 | 0.0 | 0.00 | 0.00 | 0.00 | 73 | 1017.7 |
| 20260504035503 | 61 | 0 | 0.0 | 0.0 | 0.00 | 0.00 | 0.00 | 73 | 1017.7 |
| 20260504035003 | 61 | 0 | 0.0 | 0.0 | 0.00 | 0.00 | 0.00 | 73 | 1017.7 |
| 20260504034503 | 62 | 0 | 0.0 | 0.0 | 0.00 | 0.00 | 0.00 | 73 | 1017.7 |
| 20260504034003 | 62 | 0 | 0.0 | 0.0 | 0.00 | 0.00 | 0.00 | 72 | 1017.7 |
| 20260504033504 | 62 | 0 | 0.0 | 0.0 | 0.00 | 0.00 | 0.00 | 72 | 1017.6 |
| 20260504033003 | 62 | 0 | 0.0 | 0.0 | 0.00 | 0.00 | 0.00 | 72 | 1017.6 |
| 20260504032503 | 62 | 0 | 0.0 | 0.0 | 0.00 | 0.00 | 0.00 | 71 | 1017.6 |
| 20260504032003 | 63 | 221 | 0.0 | 0.9 | 0.00 | 0.00 | 0.00 | 71 | 1017.7 |
| 20260504031503 | 63 | 221 | 0.0 | 0.9 | 0.00 | 0.00 | 0.00 | 71 | 1017.7 |
| 20260504031003 | 63 | 221 | 0.0 | 0.9 | 0.00 | 0.00 | 0.00 | 71 | 1017.7 |
| 20260504030503 | 63 | 0 | 0.0 | 0.0 | 0.00 | 0.00 | 0.00 | 70 | 1017.7 |
| 20260504030003 | 64 | 0 | 0.0 | 0.0 | 0.00 | 0.00 | 0.00 | 70 | 1017.7 |
| 20260504025524 | 64 | 221 | 0.0 | 0.9 | 0.00 | 0.00 | 0.00 | 70 | 1017.7 |
| 20260504025003 | 64 | 221 | 0.0 | 0.9 | 0.00 | 0.00 | 0.00 | 69 | 1017.6 |
| 20260504024503 | 64 | 221 | 0.0 | 0.9 | 0.00 | 0.00 | 0.00 | 68 | 1017.6 |
| 20260504024003 | 65 | 221 | 0.0 | 0.9 | 0.00 | 0.00 | 0.00 | 67 | 1017.6 |
| 20260504023503 | 65 | 221 | 0.0 | 0.9 | 0.00 | 0.00 | 0.00 | 67 | 1017.6 |
| 20260504023003 | 65 | 0 | 0.0 | 0.0 | 0.00 | 0.00 | 0.00 | 66 | 1017.6 |
| 20260504022503 | 66 | 0 | 0.0 | 0.0 | 0.00 | 0.00 | 0.00 | 66 | 1017.5 |
| 20260504022003 | 66 | 0 | 0.0 | 0.0 | 0.00 | 0.00 | 0.00 | 65 | 1017.5 |
| 20260504021503 | 66 | 0 | 0.0 | 0.0 | 0.00 | 0.00 | 0.00 | 64 | 1017.5 |
| 20260504021003 | 67 | 0 | 0.0 | 0.0 | 0.00 | 0.00 | 0.00 | 64 | 1017.6 |
| 20260504020503 | 67 | 0 | 0.0 | 0.0 | 0.00 | 0.00 | 0.00 | 64 | 1017.5 |
| 20260504020003 | 68 | 0 | 0.0 | 0.0 | 0.00 | 0.00 | 0.00 | 62 | 1017.4 |
| 20260504015503 | 68 | 0 | 0.0 | 0.0 | 0.00 | 0.00 | 0.00 | 61 | 1017.3 |
| 20260504015003 | 69 | 0 | 0.0 | 0.0 | 0.00 | 0.00 | 0.00 | 61 | 1017.2 |
| 20260504014503 | 69 | 0 | 0.0 | 0.0 | 0.00 | 0.00 | 0.00 | 60 | 1017.1 |
| 20260504014003 | 70 | 0 | 0.0 | 0.0 | 0.00 | 0.00 | 0.00 | 59 | 1017.1 |
| 20260504013503 | 70 | 0 | 0.0 | 0.0 | 0.00 | 0.00 | 0.00 | 57 | 1017.1 |
| 20260504013003 | 71 | 0 | 0.0 | 0.0 | 0.00 | 0.00 | 0.00 | 58 | 1017.1 |
| 20260504012503 | 71 | 0 | 0.0 | 0.0 | 0.00 | 0.00 | 0.00 | 56 | 1017.1 |
| 20260504012003 | 72 | 0 | 0.0 | 0.0 | 0.00 | 0.00 | 0.00 | 55 | 1017.1 |
| 20260504011503 | 72 | 0 | 0.0 | 0.0 | 0.00 | 0.00 | 0.00 | 55 | 1017.0 |
| 20260504011003 | 73 | 0 | 0.0 | 0.0 | 0.00 | 0.00 | 0.00 | 54 | 1017.0 |
| 20260504010503 | 74 | 0 | 0.0 | 0.0 | 0.00 | 0.00 | 0.00 | 53 | 1017.0 |